Simultaneous Nadir Overpasses (SNOs) Predictions

Prediction of SNOs between GOES-17 and METOP-B Satellite Orbit:

Table of predicted SNOs for the next 14.0 days since TLE Epoch: 7/31/2020
Index Date Time (GOES-17) GOES-17 Lat,Lon METOP-B Lat,Lon Distance(km) Time Diff (sec)
1 08/01/2020 18:32:02 -0.02,-137.20 -0.46,-135.19 228.65 80
2 08/03/2020 06:51:01 0.03,-137.20 -0.57,-139.79 295.48 80
3 08/04/2020 06:27:42 0.02,-137.20 0.57,-134.80 273.71 80
4 08/05/2020 18:46:33 -0.02,-137.20 0.44,-139.36 245.56 80
5 08/06/2020 18:28:33 -0.02,-137.20 -0.64,-134.36 323.55 80
6 08/08/2020 06:47:32 0.02,-137.19 -0.38,-138.95 200.95 80
7 08/09/2020 06:24:13 0.02,-137.18 0.75,-133.96 367.81 80
8 08/10/2020 18:43:04 -0.02,-137.18 0.25,-138.52 152.35 80
9 08/11/2020 18:25:03 -0.02,-137.17 -0.83,-133.52 416.12 80
10 08/13/2020 06:44:03 0.01,-137.15 -0.19,-138.11 109.43 80
11 08/14/2020 06:20:42 0.01,-137.14 0.89,-133.11 458.46 80
